Weather History for Bentonville, AR

Change the Weather History Date:

Wednesday, November 27, 2013

  Actual Average Record
Temperature  
Mean Temperature -3 °C -  
Max Temperature 2 °C 11 °C 23 °C (1960)
Min Temperature -7 °C 0 °C -12 °C (1975)
Degree Days  
Heating Degree Days 38    
Moisture  
Dew Point -12 °C    
Average Humidity 51    
Maximum Humidity 68    
Minimum Humidity 33    
Precipitation  
Precipitation 0.00 mm - - ()
Sea Level Pressure  
Sea Level Pressure 1027 hPa    
Wind  
Wind Speed 14 km/h (NNW)    
Max Wind Speed 27 km/h    
Max Gust Speed 37 km/h    
Visibility 16 kilometers    
Events      
Averages and records for this station are not official NWS values.
T = Trace of Precipitation, MM = Missing Value Source: NWS Daily Summary

Daily Weather History Graph

Daily Weather History Graph

Search for Another Location

Airport:

Trip Planner

Search our weather history database for the weather conditions in past years. The results will help you decide how hot, cold, wet, or windy it might be!

Date:

Astronomy

Nov. 27, 2013 Rise Set
Actual Time 7:06 AM CST 5:02 PM CST
Civil Twilight 6:38 AM CST 5:30 PM CST
Nautical Twilight 6:06 AM CST 6:02 PM CST
Astronomical Twilight 5:35 AM CST 6:33 PM CST
Moon 1:18 AM CST (11/27) 1:32 PM CST (11/27)
Length of Visible Light 10h 52m
Length of Day
9h 56m
Waning Crescent, 31% of the Moon is Illuminated
Nov 27
Waning Crescent
Dec 2
New
Dec 9
First Quarter
Dec 17
Full
Dec 25
Last Quarter

Hourly Weather History & Observations

Time (CST) Temp. Windchill Dew Point Humidity Pressure Visibility Wind Dir Wind Speed Gust Speed Precip Events Conditions
12:15 AM -3.0 °C -9.9 °C -11.0 °C 55% 1026.3 hPa 16.1 km North 25.9 km/h / 7.2 m/s 35.2 km/h / 9.8 m/s N/A   Clear
12:35 AM -4.0 °C -10.6 °C -11.0 °C 59% 1026.3 hPa 16.1 km North 22.2 km/h / 6.2 m/s 31.5 km/h / 8.7 m/s N/A   Clear
12:55 AM -4.0 °C -10.9 °C -11.0 °C 59% 1026.3 hPa 16.1 km North 24.1 km/h / 6.7 m/s 37.0 km/h / 10.3 m/s N/A   Clear
1:15 AM -4.0 °C -10.0 °C -12.0 °C 54% 1026.6 hPa 16.1 km North 18.5 km/h / 5.1 m/s - N/A   Clear
1:35 AM -4.0 °C -11.1 °C -12.0 °C 54% 1026.6 hPa 16.1 km North 25.9 km/h / 7.2 m/s 33.3 km/h / 9.3 m/s N/A   Clear
1:55 AM -4.0 °C -11.4 °C -12.0 °C 54% 1026.3 hPa 16.1 km North 27.8 km/h / 7.7 m/s 35.2 km/h / 9.8 m/s N/A   Clear
2:15 AM -5.0 °C -12.2 °C -12.0 °C 59% 1026.6 hPa 16.1 km North 24.1 km/h / 6.7 m/s - N/A   Clear
2:35 AM -5.0 °C -11.3 °C -12.0 °C 59% 1026.3 hPa 16.1 km North 18.5 km/h / 5.1 m/s - N/A   Clear
2:55 AM -5.0 °C -10.9 °C -12.0 °C 59% 1026.6 hPa 16.1 km North 16.7 km/h / 4.6 m/s 27.8 km/h / 7.7 m/s N/A   Clear
3:15 AM -6.0 °C -12.5 °C -12.0 °C 63% 1026.3 hPa 16.1 km North 18.5 km/h / 5.1 m/s - N/A   Clear
3:35 AM -6.0 °C -12.1 °C -12.0 °C 63% 1026.3 hPa 16.1 km NNE 16.7 km/h / 4.6 m/s - N/A   Clear
3:55 AM -6.0 °C -11.7 °C -12.0 °C 63% 1026.3 hPa 16.1 km North 14.8 km/h / 4.1 m/s - N/A   Clear
4:15 AM -6.0 °C -11.3 °C -12.0 °C 63% 1026.6 hPa 16.1 km North 13.0 km/h / 3.6 m/s - N/A   Clear
4:35 AM -6.0 °C -10.8 °C -12.0 °C 63% 1026.6 hPa 16.1 km North 11.1 km/h / 3.1 m/s - N/A   Clear
4:55 AM -6.0 °C -11.3 °C -13.0 °C 58% 1027.0 hPa 16.1 km North 13.0 km/h / 3.6 m/s - N/A   Clear
5:15 AM -6.0 °C -11.7 °C -13.0 °C 58% 1027.0 hPa 16.1 km North 14.8 km/h / 4.1 m/s - N/A   Clear
5:35 AM -6.0 °C -10.8 °C -13.0 °C 58% 1027.3 hPa 16.1 km North 11.1 km/h / 3.1 m/s - N/A   Clear
5:55 AM -7.0 °C -9.8 °C -13.0 °C 63% 1027.3 hPa 16.1 km NNW 5.6 km/h / 1.5 m/s - N/A   Clear
6:15 AM -7.0 °C -10.7 °C -13.0 °C 63% 1027.7 hPa 16.1 km NNW 7.4 km/h / 2.1 m/s - N/A   Clear
6:35 AM -7.0 °C -10.7 °C -13.0 °C 63% 1027.7 hPa 16.1 km North 7.4 km/h / 2.1 m/s - N/A   Clear
6:55 AM -7.0 °C -9.8 °C -12.0 °C 68% 1028.0 hPa 16.1 km North 5.6 km/h / 1.5 m/s - N/A   Clear
7:15 AM -7.0 °C - -13.0 °C 63% 1028.0 hPa 16.1 km Calm Calm - N/A   Clear
7:35 AM -7.0 °C -9.8 °C -12.0 °C 68% 1028.3 hPa 16.1 km NNW 5.6 km/h / 1.5 m/s - N/A   Clear
7:55 AM -7.0 °C -9.8 °C -12.0 °C 68% 1028.7 hPa 16.1 km NNW 5.6 km/h / 1.5 m/s - N/A   Clear
8:15 AM -6.0 °C -10.8 °C -12.0 °C 63% 1028.7 hPa 16.1 km North 11.1 km/h / 3.1 m/s - N/A   Clear
8:35 AM -6.0 °C -12.1 °C -12.0 °C 63% 1029.0 hPa 16.1 km North 16.7 km/h / 4.6 m/s - N/A   Clear
8:55 AM -5.0 °C -10.1 °C -13.0 °C 54% 1029.3 hPa 16.1 km North 13.0 km/h / 3.6 m/s - N/A   Clear
9:15 AM -5.0 °C -9.6 °C -13.0 °C 54% 1029.3 hPa 16.1 km North 11.1 km/h / 3.1 m/s - N/A   Clear
9:35 AM -4.0 °C -7.2 °C -13.0 °C 50% 1029.3 hPa 16.1 km North 7.4 km/h / 2.1 m/s - N/A   Clear
9:55 AM -4.0 °C -7.8 °C -13.0 °C 50% 1029.3 hPa 16.1 km NNE 9.3 km/h / 2.6 m/s - N/A   Clear
10:15 AM -3.0 °C -8.0 °C -13.0 °C 47% 1029.3 hPa 16.1 km North 14.8 km/h / 4.1 m/s - N/A   Clear
10:35 AM -3.0 °C -8.0 °C -13.0 °C 47% 1029.3 hPa 16.1 km NNW 14.8 km/h / 4.1 m/s - N/A   Clear
10:55 AM -2.0 °C -6.0 °C -13.0 °C 43% 1029.0 hPa 16.1 km North 11.1 km/h / 3.1 m/s - N/A   Clear
11:15 AM -2.0 °C -6.8 °C -13.0 °C 43% 1028.7 hPa 16.1 km North 14.8 km/h / 4.1 m/s - N/A   Clear
11:35 AM -2.0 °C -5.5 °C -13.0 °C 43% 1028.3 hPa 16.1 km NNW 9.3 km/h / 2.6 m/s - N/A   Clear
11:55 AM -1.0 °C -4.8 °C -13.0 °C 40% 1028.0 hPa 16.1 km NNW 11.1 km/h / 3.1 m/s - N/A   Clear
12:15 PM -1.0 °C -4.3 °C -13.0 °C 40% 1027.7 hPa 16.1 km North 9.3 km/h / 2.6 m/s - N/A   Clear
12:35 PM 0.0 °C -3.6 °C -13.0 °C 38% 1027.7 hPa 16.1 km NNW 11.1 km/h / 3.1 m/s - N/A   Clear
12:55 PM 0.0 °C -2.5 °C -13.0 °C 38% 1027.3 hPa 16.1 km NNW 7.4 km/h / 2.1 m/s - N/A   Clear
1:15 PM 1.0 °C -1.9 °C -13.0 °C 35% 1027.0 hPa 16.1 km North 9.3 km/h / 2.6 m/s - N/A   Clear
1:35 PM 1.0 °C -1.4 °C -13.0 °C 35% 1027.0 hPa 16.1 km West 7.4 km/h / 2.1 m/s - N/A   Clear
1:55 PM 1.0 °C -1.4 °C -13.0 °C 35% 1026.6 hPa 16.1 km ENE 7.4 km/h / 2.1 m/s - N/A   Clear
2:15 PM 1.0 °C -1.4 °C -13.0 °C 35% 1026.3 hPa 16.1 km North 7.4 km/h / 2.1 m/s - N/A   Clear
2:35 PM 2.0 °C -0.7 °C -12.0 °C 35% 1026.3 hPa 16.1 km NW 9.3 km/h / 2.6 m/s - N/A   Clear
2:55 PM 2.0 °C - -13.0 °C 33% 1026.0 hPa 16.1 km Calm Calm - N/A   Clear
3:15 PM 2.0 °C -0.2 °C -13.0 °C 33% 1025.6 hPa 16.1 km North 7.4 km/h / 2.1 m/s - N/A   Clear
3:35 PM 2.0 °C - -13.0 °C 33% 1025.6 hPa 16.1 km Calm Calm - N/A   Clear
3:55 PM 2.0 °C - -13.0 °C 33% 1025.6 hPa 16.1 km Calm Calm - N/A   Clear
4:15 PM 2.0 °C -0.2 °C -12.0 °C 35% 1025.6 hPa 16.1 km WSW 7.4 km/h / 2.1 m/s - N/A   Clear
4:35 PM 2.0 °C 0.5 °C -13.0 °C 33% 1025.3 hPa 16.1 km West 5.6 km/h / 1.5 m/s - N/A   Clear
4:55 PM 1.0 °C -0.7 °C -13.0 °C 35% 1025.3 hPa 16.1 km WSW 5.6 km/h / 1.5 m/s - N/A   Clear
5:15 PM 1.0 °C -0.7 °C -13.0 °C 35% 1025.3 hPa 16.1 km WSW 5.6 km/h / 1.5 m/s - N/A   Clear
5:35 PM 0.0 °C -1.8 °C -13.0 °C 38% 1025.3 hPa 16.1 km SW 5.6 km/h / 1.5 m/s - N/A   Clear
5:55 PM -1.0 °C -3.0 °C -12.0 °C 44% 1025.3 hPa 16.1 km SSW 5.6 km/h / 1.5 m/s - N/A   Clear
6:15 PM -2.0 °C -4.9 °C -12.0 °C 47% 1025.3 hPa 16.1 km WSW 7.4 km/h / 2.1 m/s - N/A   Clear
6:35 PM -1.0 °C -3.0 °C -12.0 °C 44% 1025.3 hPa 16.1 km WSW 5.6 km/h / 1.5 m/s - N/A   Clear
6:55 PM -2.0 °C - -12.0 °C 47% 1025.3 hPa 16.1 km Calm Calm - N/A   Clear
7:15 PM -2.0 °C - -12.0 °C 47% 1025.3 hPa 16.1 km Calm Calm - N/A   Clear
7:35 PM -2.0 °C -4.9 °C -12.0 °C 47% 1025.3 hPa 16.1 km South 7.4 km/h / 2.1 m/s - N/A   Clear
7:55 PM -3.0 °C -5.2 °C -12.0 °C 51% 1025.3 hPa 16.1 km South 5.6 km/h / 1.5 m/s - N/A   Clear
8:15 PM -3.0 °C - -12.0 °C 51% 1025.3 hPa 16.1 km Calm Calm - N/A   Clear
8:35 PM -4.0 °C -7.2 °C -12.0 °C 54% 1025.3 hPa 16.1 km South 7.4 km/h / 2.1 m/s - N/A   Clear
8:55 PM -4.0 °C -7.8 °C -11.0 °C 59% 1025.3 hPa 16.1 km South 9.3 km/h / 2.6 m/s - N/A   Clear
9:35 PM -4.0 °C -7.2 °C -11.0 °C 59% 1024.9 hPa 16.1 km South 7.4 km/h / 2.1 m/s - N/A   Clear
9:55 PM -3.0 °C -6.0 °C -12.0 °C 51% 1025.3 hPa 16.1 km South 7.4 km/h / 2.1 m/s - N/A   Clear
10:15 PM -3.0 °C -5.2 °C -11.0 °C 55% 1025.3 hPa 16.1 km SSW 5.6 km/h / 1.5 m/s - N/A   Clear
10:35 PM -4.0 °C -7.8 °C -11.0 °C 59% 1025.3 hPa 16.1 km SW 9.3 km/h / 2.6 m/s - N/A   Clear
10:55 PM -4.0 °C -7.2 °C -11.0 °C 59% 1025.3 hPa 16.1 km SSW 7.4 km/h / 2.1 m/s - N/A   Clear
11:15 PM -4.0 °C -6.4 °C -12.0 °C 54% 1025.6 hPa 16.1 km SW 5.6 km/h / 1.5 m/s - N/A   Clear
11:35 PM -4.0 °C - -12.0 °C 54% 1025.6 hPa 16.1 km Calm Calm - N/A   Clear
11:55 PM -5.0 °C -7.5 °C -11.0 °C 63% 1025.6 hPa 16.1 km South 5.6 km/h / 1.5 m/s - N/A   Clear